User: anonymous   Login
Location: Conflandey
(47.7287°N, 6.0456°E)
Time: 01:57:14
(UTC+00:00)
Language:

Cosmos 1892 - Orbit

View from above orbital plane
View from above orbital plane
View from above satellite
View from above satellite

Ground track
Ground track

The orbit data is extracted from the following two-line orbital elements,

1 18421U 87088A   22019.90111971  .00003099  00000-0  14963-3 0  9997
2 18421  82.4983  57.7109 0014044 199.3005 160.7699 15.18225859872956
Epoch (UTC): 19 January 2022 21:37:36
Eccentricity: 0.0014044
inclination: 82.4983°
perigee height: 501 km
apogee height: 521 km
right ascension of ascending node: 57.7109°
argument of perigee: 199.3005°
revolutions per day: 15.18225859
mean anomaly at epoch: 160.7699°
orbit number at epoch: 87295

The dashed part of the orbit path shows where the satellite is in the earth's shadow,  

DLR